ZL1KPB-13 Weather Reports


Display with metric or nautical units.
time (UTC)temp
F
wind
direction
speed
MPH
gust
MPH
rain 1hr
in
rain 24hr
in
rain mn
in
humidity
%
barometer
mb
20260506023106 70 269 4.0 5.0 0.00 0.00 0.00 65 1031.4
20260506022101 69 241 2.0 5.0 0.00 0.00 0.00 64 1031.4
20260506021057 69 271 0.0 3.0 0.00 0.00 0.00 62 1031.4
20260506020054 70 238 4.0 5.0 0.00 0.00 0.00 56 1031.4
20260506015050 71 241 2.0 3.0 0.00 0.00 0.00 58 1031.5
20260506014046 71 243 4.0 8.0 0.00 0.00 0.00 60 1031.5
20260506013043 70 263 4.0 8.0 0.00 0.00 0.00 60 1031.7
20260506012040 70 248 5.0 8.0 0.00 0.00 0.00 60 1031.7
20260506011036 70 238 5.0 9.0 0.00 0.00 0.00 61 1031.8
20260506010033 72 49 6.0 15.0 0.00 0.00 0.00 65 1031.9
20260506005051 70 52 1.0 2.0 0.00 0.00 0.00 70 1031.9
20260506004151 68 128 1.0 4.0 0.00 0.00 0.00 72 1031.9
20260506003104 66 203 2.0 3.0 0.00 0.00 0.00 73 1032.0
20260506002122 66 168 3.0 5.0 0.00 0.00 0.00 73 1032.1
20260506001115 66 106 2.0 3.0 0.00 0.00 0.00 72 1032.2
20260506000112 67 135 2.0 4.0 0.00 0.00 0.00 70 1032.3
20260505235108 70 57 3.0 5.0 0.00 0.00 0.00 69 1032.5
20260505234105 68 144 3.0 7.0 0.00 0.00 0.00 70 1032.5
20260505233101 68 187 3.0 6.0 0.00 0.00 0.00 70 1032.6
20260505232058 69 119 4.0 6.0 0.00 0.00 0.00 66 1032.5
20260505231054 70 138 3.0 6.0 0.00 0.00 0.00 70 1032.7
20260505230050 69 140 3.0 4.0 0.00 0.00 0.00 72 1032.8
20260505225047 67 135 2.0 4.0 0.00 0.00 0.00 74 1032.9
20260505224104 66 142 3.0 4.0 0.00 0.00 0.00 73 1033.0
20260505223101 67 144 3.0 5.0 0.00 0.00 0.00 73 1033.0
20260505222036 66 142 3.0 5.0 0.00 0.00 0.00 74 1033.0
20260505221032 64 150 2.0 3.0 0.00 0.00 0.00 82 1033.2
20260505220029 61 123 1.0 2.0 0.00 0.00 0.00 85 1033.2
20260505215026 61 135 1.0 3.0 0.00 0.00 0.00 87 1033.3
20260505214043 60 58 1.0 3.0 0.00 0.00 0.00 89 1033.3
20260505213019 59 50 1.0 2.0 0.00 0.00 0.00 90 1033.3
20260505212116 58 111 1.0 3.0 0.00 0.00 0.00 92 1033.3
20260505211112 59 248 1.0 2.0 0.00 0.00 0.00 97 1033.3
20260505210108 59 248 1.0 2.0 0.00 0.00 0.00 99 1033.2
20260505205105 59 158 0.0 2.0 0.00 0.00 0.00 99 1033.1
20260505204102 58 158 0.0 2.0 0.00 0.00 0.00 99 1033.1
20260505203222 56 0.0 0.0 0.00 0.00 0.00 99 1032.9
20260505202115 55 0.0 0.0 0.00 0.00 0.00 99 1032.8
20260505201051 55 0.0 1.0 0.00 0.00 0.00 99 1032.7
20260505200047 54 0.0 0.0 0.00 0.00 0.00 99 1032.5
20260505195043 54 0.0 1.0 0.00 0.00 0.00 99 1032.5
20260505194041 53 0.0 1.0 0.00 0.00 0.00 99 1032.4
20260505193036 53 0.0 0.0 0.00 0.00 0.00 99 1032.3
20260505192033 53 0.0 0.0 0.00 0.00 0.00 99 1032.2
20260505191029 53 0.0 0.0 0.00 0.00 0.00 99 1032.2
20260505190026 53 0.0 0.0 0.00 0.00 0.00 99 1032.2
20260505185043 53 0.0 0.0 0.00 0.00 0.00 99 1032.2
20260505184041 54 0.0 0.0 0.00 0.00 0.00 99 1032.1
20260505183116 54 203 0.0 2.0 0.00 0.00 0.00 99 1031.9
20260505182133 54 0.0 0.0 0.00 0.00 0.00 99 1032.0
20260505181109 54 0.0 0.0 0.00 0.00 0.00 99 1032.0
20260505180105 54 0.0 0.0 0.00 0.00 0.00 99 1032.0
20260505175102 54 0.0 0.0 0.00 0.00 0.00 99 1032.1
20260505174058 53 0.0 0.0 0.00 0.00 0.00 99 1032.1
20260505173136 54 0.0 0.0 0.00 0.00 0.00 99 1032.1
20260505172051 54 0.0 0.0 0.00 0.00 0.00 99 1032.2
20260505171048 54 0.0 0.0 0.00 0.00 0.00 99 1032.3
20260505170045 54 0.0 0.0 0.00 0.00 0.00 99 1032.2
20260505165041 54 203 0.0 2.0 0.00 0.00 0.00 99 1032.3
20260505164038 54 0.0 0.0 0.00 0.00 0.00 99 1032.2
20260505163033 55 135 0.0 2.0 0.00 0.00 0.00 96 1032.3
20260505162031 54 135 0.0 2.0 0.00 0.00 0.00 98 1032.2
20260505161027 54 203 1.0 2.0 0.00 0.00 0.00 98 1032.2
20260505153134 54 0.0 1.0 0.00 0.00 0.00 97 1032.5
20260505152109 54 135 0.0 2.0 0.00 0.00 0.00 97 1032.5
20260505151105 54 135 0.0 2.0 0.00 0.00 0.00 96 1032.5
20260505125017 56 90 1.0 2.0 0.00 0.00 0.00 85 1033.6
20260505124113 56 247 2.0 3.0 0.00 0.00 0.00 85 1033.7
20260505123109 56 243 2.0 4.0 0.00 0.00 0.00 85 1033.9
20260505122105 56 248 2.0 4.0 0.00 0.00 0.00 84 1033.9
20260505121123 56 263 1.0 2.0 0.00 0.00 0.00 84 1034.0
20260505120100 57 248 1.0 2.0 0.00 0.00 0.00 84 1034.0
20260505115117 57 259 1.0 2.0 0.00 0.00 0.00 83 1034.0
20260505114051 57 259 1.0 2.0 0.00 0.00 0.00 83 1034.0
20260505113048 57 255 2.0 3.0 0.00 0.00 0.00 82 1034.1
20260505112046 57 284 1.0 3.0 0.00 0.00 0.00 82 1034.1
20260505111041 57 255 3.0 4.0 0.00 0.00 0.00 82 1034.1
20260505102026 56 45 1.0 4.0 0.00 0.00 0.00 85 1034.4
20260505101022 56 285 1.0 2.0 0.00 0.00 0.00 85 1034.5
20260505100016 56 270 1.0 3.0 0.00 0.00 0.00 86 1034.5
20260505095134 56 248 1.0 2.0 0.00 0.00 0.00 87 1034.4
20260505094130 56 45 0.0 2.0 0.00 0.00 0.00 88 1034.4
20260505093106 56 42 1.0 3.0 0.00 0.00 0.00 89 1034.4
20260505092102 56 233 2.0 4.0 0.00 0.00 0.00 89 1034.4
20260505091139 55 285 3.0 4.0 0.00 0.00 0.00 88 1034.4
20260505090055 55 28 1.0 2.0 0.00 0.00 0.00 87 1034.4
20260505085051 55 45 0.0 2.0 0.00 0.00 0.00 85 1034.4
20260505084108 56 0.0 0.0 0.00 0.00 0.00 85 1034.3
20260505083046 56 0.0 0.0 0.00 0.00 0.00 85 1034.5
20260505082042 56 0.0 0.0 0.00 0.00 0.00 85 1034.4
20260505081038 56 45 0.0 2.0 0.00 0.00 0.00 84 1034.4
20260505080058 56 0.0 1.0 0.00 0.00 0.00 84 1034.5
20260505075030 56 0.0 0.0 0.00 0.00 0.00 83 1034.5
20260505074027 57 0.0 0.0 0.00 0.00 0.00 83 1034.6
20260505073023 57 0.0 1.0 0.00 0.00 0.00 83 1034.4
20260505072020 57 0.0 0.0 0.00 0.00 0.00 82 1034.4
20260505071016 57 0.0 0.0 0.00 0.00 0.00 82 1034.4
20260505070113 57 0.0 1.0 0.00 0.00 0.00 82 1034.4
20260505065150 58 45 1.0 2.0 0.00 0.00 0.00 82 1034.3
20260505064106 58 45 1.0 3.0 0.00 0.00 0.00 83 1034.3
20260505063104 58 45 1.0 2.0 0.00 0.00 0.00 84 1034.3
20260505062059 57 231 3.0 6.0 0.00 0.00 0.00 84 1034.3
20260505061055 56 0.0 0.0 0.00 0.00 0.00 83 1034.3
20260505060052 56 0.0 0.0 0.00 0.00 0.00 82 1034.3
20260505055109 56 0.0 0.0 0.00 0.00 0.00 80 1034.2
20260505054127 56 90 0.0 2.0 0.00 0.00 0.00 80 1034.1
20260505053103 57 90 1.0 2.0 0.00 0.00 0.00 77 1034.2
20260505052038 58 0.0 1.0 0.00 0.00 0.00 76 1034.2
20260505051034 59 90 0.0 1.0 0.00 0.00 0.00 76 1034.2
20260505041113 61 90 0.0 2.0 0.00 0.00 0.00 72 1034.6
20260505040130 62 90 0.0 2.0 0.00 0.00 0.00 71 1034.7
20260505035105 62 90 0.0 2.0 0.00 0.00 0.00 71 1034.6
20260505034101 63 48 1.0 2.0 0.00 0.00 0.00 71 1034.8
20260505033058 63 135 1.0 2.0 0.00 0.00 0.00 71 1034.8
20260505032054 63 179 1.0 4.0 0.00 0.00 0.00 71 1034.7
20260505031052 63 135 1.0 3.0 0.00 0.00 0.00 70 1034.7
20260505030049 64 124 1.0 3.0 0.00 0.00 0.00 65 1034.5
20260505025044 64 136 1.0 2.0 0.00 0.00 0.00 65 1034.6
20260505024040 64 130 1.0 3.0 0.00 0.00 0.00 65 1034.6